Weather History for KSJN - January, 2013

Change the Weather History Date:

Thursday, January 24, 2013

  Actual Average (KSOW) Record (KSOW)
Temperature  
Mean Temperature 39 °F -  
Max Temperature 48 °F 44 °F 62 °F (1970)
Min Temperature 30 °F 28 °F 2 °F (1966)
Degree Days  
Heating Degree Days 26    
Moisture  
Dew Point 26 °F    
Average Humidity 58    
Maximum Humidity 100    
Minimum Humidity 29    
Precipitation  
Precipitation 0.02 in - - ()
Sea Level Pressure  
Sea Level Pressure 30.25 in    
Wind  
Wind Speed 2 mph (NNE)    
Max Wind Speed 20 mph    
Max Gust Speed -    
Visibility 9 miles    
Events Fog , Rain    
Averages and records for this station are not official NWS values.
T = Trace of Precipitation, MM = Missing Value Source: NWS Daily Summary

Daily Weather History Graph

Daily Weather History Graph

Search for Another Location

Airport or City:

Trip Planner

Search our weather history database for the weather conditions in past years. The results will help you decide how hot, cold, wet, or windy it might be!

Date:

Astronomy

Jan. 24, 2013 Rise Set
Actual Time 7:20 AM MST 5:39 PM MST
Civil Twilight 6:53 AM MST 6:06 PM MST
Nautical Twilight 6:23 AM MST 6:36 PM MST
Astronomical Twilight 5:53 AM MST 7:06 PM MST
Moon 3:45 PM MST (1/24) 5:18 AM MST (1/24)
Length of Visible Light 11h 12m
Length of Day
10h 19m
Waxing Gibbous, 95% of the Moon is Illuminated
Jan 24
Waxing Gibbous
Jan 26
Full
Feb 3
Last Quarter
Feb 10
New
Feb 17
First Quarter

Hourly Weather History & Observations

Time (MST) Temp. Windchill Dew Point Humidity Pressure Visibility Wind Dir Wind Speed Gust Speed Precip Events Conditions
12:54 AM 27.0 °F - 10.9 °F 51% 30.25 in 10.0 mi Calm Calm - N/A   Clear
1:54 AM 33.1 °F 30.0 °F 12.9 °F 43% 30.24 in 10.0 mi South 3.5 mph - N/A   Clear
2:54 AM 28.9 °F 25.2 °F 12.0 °F 49% 30.26 in 10.0 mi ESE 3.5 mph - N/A   Clear
3:54 AM 30.9 °F 27.5 °F 12.9 °F 47% 30.24 in 10.0 mi SSE 3.5 mph - N/A   Clear
4:54 AM 30.9 °F - 14.0 °F 50% 30.24 in 10.0 mi Calm Calm - N/A   Clear
5:54 AM 28.9 °F - 15.1 °F 56% 30.28 in 10.0 mi Calm Calm - N/A   Clear
6:54 AM 30.9 °F - 14.0 °F 50% 30.29 in 10.0 mi Calm Calm - N/A   Clear
7:54 AM 28.9 °F - 16.0 °F 58% 30.31 in 8.0 mi Calm Calm - N/A   Clear
8:54 AM 35.1 °F - 15.1 °F 44% 30.30 in 10.0 mi Calm Calm - N/A   Clear
9:54 AM 39.9 °F - 16.0 °F 38% 30.30 in 10.0 mi Calm Calm - N/A   Partly Cloudy
10:54 AM 46.0 °F - 17.1 °F 31% 30.32 in 10.0 mi Calm Calm - N/A   Mostly Cloudy
11:54 AM 50.0 °F - 19.0 °F 29% 30.26 in 10.0 mi Calm Calm - N/A   Mostly Cloudy
12:54 PM 50.0 °F - 25.0 °F 38% 30.27 in 10.0 mi NW 4.6 mph - 0.00 in Rain Light Rain
1:54 PM 52.0 °F - 30.0 °F 43% 30.20 in 10.0 mi North 5.8 mph - 0.00 in Rain Light Rain
2:54 PM 54.0 °F - 30.9 °F 41% 30.18 in 10.0 mi Calm Calm - 0.00 in   Mostly Cloudy
3:54 PM 53.1 °F - 33.1 °F 47% 30.19 in 10.0 mi SE 5.8 mph - N/A   Overcast
4:54 PM 53.1 °F - 33.1 °F 47% 30.20 in 10.0 mi North 4.6 mph - N/A   Overcast
5:54 PM 48.9 °F - 36.0 °F 61% 30.25 in 10.0 mi NW 6.9 mph - 0.00 in Rain Light Rain
6:54 PM 46.0 °F 43.9 °F 39.9 °F 79% 30.27 in 10.0 mi NW 4.6 mph - 0.00 in   Overcast
7:54 PM 45.0 °F 42.6 °F 39.9 °F 82% 30.28 in 10.0 mi ENE 4.6 mph - N/A   Overcast
8:54 PM 44.1 °F - 39.9 °F 85% 30.26 in 10.0 mi Calm Calm - 0.00 in Rain Light Rain
9:54 PM 42.1 °F - 39.0 °F 89% 30.25 in 10.0 mi Calm Calm - 0.00 in   Partly Cloudy
10:54 PM 41.0 °F - 39.0 °F 93% 30.24 in 10.0 mi Calm Calm - N/A   Mostly Cloudy
11:54 PM 42.1 °F - 39.0 °F 89% 30.23 in 10.0 mi Calm Calm - N/A   Overcast